Location: Prague
(50.0830°N, 14.4670°E)
Time: 06:46:32
(UTC+02:00)

ISS - Pass Details

Date: 28 September 2021
Orbit: 417 x 423 km, 51.6° (Epoch: 20 October)

Event Time Altitude Azimuth Distance (km) Brightness Sun altitude
Rises 19:22:41 0° 276° (W) 2,363 2.9 -6.6°
Reaches altitude 10° 19:24:47 10° 280° (W) 1,500 0.8 -6.9°
Maximum altitude 19:28:08 65° 2° (N) 465 -3.5 -7.5°
Enters shadow 19:31:25 11° 86° (E) 1,469 -1.7 -8.0°
